Year,Month,Day,Hour,Minute,Value (Times are PST for temperature in C)
2017,07,06,00,00,16.30
2017,07,06,00,01,16.30
2017,07,06,00,02,16.20
2017,07,06,00,03,16.20
2017,07,06,00,04,16.20
2017,07,06,00,05,16.20
2017,07,06,00,06,16.20
2017,07,06,00,07,16.20
2017,07,06,00,08,16.20
2017,07,06,00,09,16.20
2017,07,06,00,10,16.20
2017,07,06,00,11,16.10
2017,07,06,00,12,16.10
2017,07,06,00,13,16.10
2017,07,06,00,14,16.10
2017,07,06,00,15,16.10
2017,07,06,00,16,16.10
2017,07,06,00,17,16.10
2017,07,06,00,18,16.10
2017,07,06,00,19,16.10
2017,07,06,00,20,16.10
2017,07,06,00,21,16.10
2017,07,06,00,22,16.00
2017,07,06,00,23,16.00
2017,07,06,00,24,16.00
2017,07,06,00,25,16.00
2017,07,06,00,26,16.00
2017,07,06,00,27,16.00
2017,07,06,00,28,16.00
2017,07,06,00,29,16.00
2017,07,06,00,30,16.00
2017,07,06,00,31,16.00
2017,07,06,00,32,15.90
2017,07,06,00,33,15.90
2017,07,06,00,34,15.90
2017,07,06,00,35,15.90
2017,07,06,00,36,15.90
2017,07,06,00,37,15.90
2017,07,06,00,38,15.90
2017,07,06,00,39,15.90
2017,07,06,00,40,15.90
2017,07,06,00,41,15.90
2017,07,06,00,42,15.90
2017,07,06,00,43,15.80
2017,07,06,00,44,15.80
2017,07,06,00,45,15.80
2017,07,06,00,46,15.80
2017,07,06,00,47,15.80
2017,07,06,00,48,15.70
2017,07,06,00,49,15.70
2017,07,06,00,50,15.70
2017,07,06,00,51,15.60
2017,07,06,00,52,15.60
2017,07,06,00,53,15.60
2017,07,06,00,54,15.60
2017,07,06,00,55,15.50
2017,07,06,00,56,15.50
2017,07,06,00,57,15.50
2017,07,06,00,58,15.50
2017,07,06,00,59,15.50
2017,07,06,01,00,15.40
2017,07,06,01,01,15.40
2017,07,06,01,02,15.40
2017,07,06,01,03,15.40
2017,07,06,01,04,15.40
2017,07,06,01,05,15.40
2017,07,06,01,06,15.40
2017,07,06,01,07,15.30
2017,07,06,01,08,15.30
2017,07,06,01,09,15.30
2017,07,06,01,10,15.30
2017,07,06,01,11,15.30
2017,07,06,01,12,15.20
2017,07,06,01,13,15.20
2017,07,06,01,14,15.20
2017,07,06,01,15,15.20
2017,07,06,01,16,15.10
2017,07,06,01,17,15.10
2017,07,06,01,18,15.10
2017,07,06,01,19,15.10
2017,07,06,01,20,15.00
2017,07,06,01,21,15.00
2017,07,06,01,22,15.00
2017,07,06,01,23,14.90
2017,07,06,01,24,14.90
2017,07,06,01,25,14.90
2017,07,06,01,26,14.90
2017,07,06,01,27,14.90
2017,07,06,01,28,14.80
2017,07,06,01,29,14.80
2017,07,06,01,30,14.80
2017,07,06,01,31,14.80
2017,07,06,01,32,14.80
2017,07,06,01,33,14.80
2017,07,06,01,34,14.70
2017,07,06,01,35,14.70
2017,07,06,01,36,14.70
2017,07,06,01,37,14.70
2017,07,06,01,38,14.70
2017,07,06,01,39,14.70
2017,07,06,01,40,14.60
2017,07,06,01,41,14.60
2017,07,06,01,42,14.60
2017,07,06,01,43,14.60
2017,07,06,01,44,14.60
2017,07,06,01,45,14.60
2017,07,06,01,46,14.50
2017,07,06,01,47,14.50
2017,07,06,01,48,14.50
2017,07,06,01,49,14.50
2017,07,06,01,50,14.40
2017,07,06,01,51,14.40
2017,07,06,01,52,14.40
2017,07,06,01,53,14.40
2017,07,06,01,54,14.40
2017,07,06,01,55,14.30
2017,07,06,01,56,14.30
2017,07,06,01,57,14.30
2017,07,06,01,58,14.30
2017,07,06,01,59,14.30
2017,07,06,02,00,14.30
2017,07,06,02,01,14.30
2017,07,06,02,02,14.30
2017,07,06,02,03,14.20
2017,07,06,02,04,14.20
2017,07,06,02,05,14.20
2017,07,06,02,06,14.20
2017,07,06,02,07,14.20
2017,07,06,02,08,14.20
2017,07,06,02,09,14.10
2017,07,06,02,10,14.10
2017,07,06,02,11,14.10
2017,07,06,02,12,14.10
2017,07,06,02,13,14.10
2017,07,06,02,14,14.10
2017,07,06,02,15,14.10
2017,07,06,02,16,14.10
2017,07,06,02,17,14.10
2017,07,06,02,18,14.10
2017,07,06,02,19,14.00
2017,07,06,02,20,14.00
2017,07,06,02,21,14.00
2017,07,06,02,22,14.00
2017,07,06,02,23,13.90
2017,07,06,02,24,13.90
2017,07,06,02,25,13.90
2017,07,06,02,26,13.90
2017,07,06,02,27,13.90
2017,07,06,02,28,13.90
2017,07,06,02,29,13.80
2017,07,06,02,30,13.80
2017,07,06,02,31,13.80
2017,07,06,02,32,13.80
2017,07,06,02,33,13.80
2017,07,06,02,34,13.80
2017,07,06,02,35,13.70
2017,07,06,02,36,13.70
2017,07,06,02,37,13.70
2017,07,06,02,38,13.70
2017,07,06,02,39,13.70
2017,07,06,02,40,13.70
2017,07,06,02,41,13.60
2017,07,06,02,42,13.60
2017,07,06,02,43,13.60
2017,07,06,02,44,13.60
2017,07,06,02,45,13.60
2017,07,06,02,46,13.60
2017,07,06,02,47,13.60
2017,07,06,02,48,13.60
2017,07,06,02,49,13.50
2017,07,06,02,50,13.50
2017,07,06,02,51,13.50
2017,07,06,02,52,13.50
2017,07,06,02,53,13.50
2017,07,06,02,54,13.50
2017,07,06,02,55,13.50
2017,07,06,02,56,13.50
2017,07,06,02,57,13.60
2017,07,06,02,58,13.60
2017,07,06,02,59,13.50
2017,07,06,03,00,13.60
2017,07,06,03,01,13.60
2017,07,06,03,02,13.50
2017,07,06,03,03,13.50
2017,07,06,03,04,13.50
2017,07,06,03,05,13.50
2017,07,06,03,06,13.50
2017,07,06,03,07,13.40
2017,07,06,03,08,13.40
2017,07,06,03,09,13.40
2017,07,06,03,10,13.40
2017,07,06,03,11,13.40
2017,07,06,03,12,13.40
2017,07,06,03,13,13.30
2017,07,06,03,14,13.30
2017,07,06,03,15,13.30
2017,07,06,03,16,13.30
2017,07,06,03,17,13.30
2017,07,06,03,18,13.20
2017,07,06,03,19,13.20
2017,07,06,03,20,13.20
2017,07,06,03,21,13.20
2017,07,06,03,22,13.20
2017,07,06,03,23,13.20
2017,07,06,03,24,13.10
2017,07,06,03,25,13.10
2017,07,06,03,26,13.10
2017,07,06,03,27,13.10
2017,07,06,03,28,13.00
2017,07,06,03,29,13.00
2017,07,06,03,30,13.00
2017,07,06,03,31,12.90
2017,07,06,03,32,12.90
2017,07,06,03,33,12.90
2017,07,06,03,34,12.90
2017,07,06,03,35,12.90
2017,07,06,03,36,12.90
2017,07,06,03,37,12.80
2017,07,06,03,38,12.80
2017,07,06,03,39,12.80
2017,07,06,03,40,12.80
2017,07,06,03,41,12.80
2017,07,06,03,42,12.80
2017,07,06,03,43,12.80
2017,07,06,03,44,12.70
2017,07,06,03,45,12.70
2017,07,06,03,46,12.70
2017,07,06,03,47,12.70
2017,07,06,03,48,12.70
2017,07,06,03,49,12.70
2017,07,06,03,50,12.70
2017,07,06,03,51,12.60
2017,07,06,03,52,12.60
2017,07,06,03,53,12.60
2017,07,06,03,54,12.60
2017,07,06,03,55,12.60
2017,07,06,03,56,12.60
2017,07,06,03,57,12.60
2017,07,06,03,58,12.60
2017,07,06,03,59,12.60
2017,07,06,04,00,12.60
2017,07,06,04,01,12.50
2017,07,06,04,02,12.50
2017,07,06,04,03,12.50
2017,07,06,04,04,12.50
2017,07,06,04,05,12.40
2017,07,06,04,06,12.40
2017,07,06,04,07,12.40
2017,07,06,04,08,12.40
2017,07,06,04,09,12.40
2017,07,06,04,10,12.40
2017,07,06,04,11,12.40
2017,07,06,04,12,12.40
2017,07,06,04,13,12.40
2017,07,06,04,14,12.40
2017,07,06,04,15,12.40
2017,07,06,04,16,12.30
2017,07,06,04,17,12.30
2017,07,06,04,18,12.30
2017,07,06,04,19,12.30
2017,07,06,04,20,12.30
2017,07,06,04,21,12.30
2017,07,06,04,22,12.30
2017,07,06,04,23,12.30
2017,07,06,04,24,12.30
2017,07,06,04,25,12.30
2017,07,06,04,26,12.20
2017,07,06,04,27,12.20
2017,07,06,04,28,12.20
2017,07,06,04,29,12.20
2017,07,06,04,30,12.20
2017,07,06,04,31,12.20
2017,07,06,04,32,12.20
2017,07,06,04,33,12.20
2017,07,06,04,34,12.20
2017,07,06,04,35,12.20
2017,07,06,04,36,12.10
2017,07,06,04,37,12.10
2017,07,06,04,38,12.10
2017,07,06,04,39,12.10
2017,07,06,04,40,12.10
2017,07,06,04,41,12.10
2017,07,06,04,42,12.10
2017,07,06,04,43,12.10
2017,07,06,04,44,12.10
2017,07,06,04,45,12.10
2017,07,06,04,46,12.10
2017,07,06,04,47,12.10
2017,07,06,04,48,12.10
2017,07,06,04,49,12.10
2017,07,06,04,50,12.10
2017,07,06,04,51,12.10
2017,07,06,04,52,12.00
2017,07,06,04,53,12.00
2017,07,06,04,54,12.00
2017,07,06,04,55,12.00
2017,07,06,04,56,12.00
2017,07,06,04,57,12.00
2017,07,06,04,58,12.00
2017,07,06,04,59,11.90
2017,07,06,05,00,11.90
2017,07,06,05,01,11.90
2017,07,06,05,02,11.90
2017,07,06,05,03,11.90
2017,07,06,05,04,11.90
2017,07,06,05,05,11.90
2017,07,06,05,06,11.90
2017,07,06,05,07,11.90
2017,07,06,05,08,11.90
2017,07,06,05,09,11.80
2017,07,06,05,10,11.80
2017,07,06,05,11,11.80
2017,07,06,05,12,11.80
2017,07,06,05,13,11.80
2017,07,06,05,14,11.80
2017,07,06,05,15,11.80
2017,07,06,05,16,11.80
2017,07,06,05,17,11.80
2017,07,06,05,18,11.80
2017,07,06,05,19,11.80
2017,07,06,05,20,11.80
2017,07,06,05,21,11.80
2017,07,06,05,22,11.80
2017,07,06,05,23,11.80
2017,07,06,05,24,11.80
2017,07,06,05,25,11.80
2017,07,06,05,26,11.80
2017,07,06,05,27,11.70
2017,07,06,05,28,11.70
2017,07,06,05,29,11.70
2017,07,06,05,30,11.70
2017,07,06,05,31,11.70
2017,07,06,05,32,11.70
2017,07,06,05,33,11.70
2017,07,06,05,34,11.70
2017,07,06,05,35,11.70
2017,07,06,05,36,11.70
2017,07,06,05,37,11.70
2017,07,06,05,38,11.70
2017,07,06,05,39,11.70
2017,07,06,05,40,11.70
2017,07,06,05,41,11.70
2017,07,06,05,42,11.70
2017,07,06,05,43,11.70
2017,07,06,05,44,11.70
2017,07,06,05,45,11.70
2017,07,06,05,46,11.70
2017,07,06,05,47,11.70
2017,07,06,05,48,11.70
2017,07,06,05,49,11.60
2017,07,06,05,50,11.60
2017,07,06,05,51,11.60
2017,07,06,05,52,11.60
2017,07,06,05,53,11.60
2017,07,06,05,54,11.60
2017,07,06,05,55,11.60
2017,07,06,05,56,11.60
2017,07,06,05,57,11.60
2017,07,06,05,58,11.60
2017,07,06,05,59,11.60
2017,07,06,06,00,11.60
2017,07,06,06,01,11.60
2017,07,06,06,02,11.60
2017,07,06,06,03,11.60
2017,07,06,06,04,11.60
2017,07,06,06,05,11.60
2017,07,06,06,06,11.60
2017,07,06,06,07,11.60
2017,07,06,06,08,11.60
2017,07,06,06,09,11.60
2017,07,06,06,10,11.60
2017,07,06,06,11,11.60
2017,07,06,06,12,11.60
2017,07,06,06,13,11.60
2017,07,06,06,14,11.60
2017,07,06,06,15,11.60
2017,07,06,06,16,11.60
2017,07,06,06,17,11.60
2017,07,06,06,18,11.70
2017,07,06,06,19,11.60
2017,07,06,06,20,11.70
2017,07,06,06,21,11.70
2017,07,06,06,22,11.70
2017,07,06,06,23,11.70
2017,07,06,06,24,11.70
2017,07,06,06,25,11.70
2017,07,06,06,26,11.70
2017,07,06,06,27,11.70
2017,07,06,06,28,11.70
2017,07,06,06,29,11.70
2017,07,06,06,30,11.70
2017,07,06,06,31,11.80
2017,07,06,06,32,11.80
2017,07,06,06,33,11.80
2017,07,06,06,34,11.80
2017,07,06,06,35,11.80
2017,07,06,06,36,11.80
2017,07,06,06,37,11.80
2017,07,06,06,38,11.80
2017,07,06,06,39,11.90
2017,07,06,06,40,11.90
2017,07,06,06,41,12.00
2017,07,06,06,42,12.00
2017,07,06,06,43,12.10
2017,07,06,06,44,12.10
2017,07,06,06,45,12.10
2017,07,06,06,46,12.20
2017,07,06,06,47,12.20
2017,07,06,06,48,12.20
2017,07,06,06,49,12.20
2017,07,06,06,50,12.20
2017,07,06,06,51,12.30
2017,07,06,06,52,12.30
2017,07,06,06,53,12.30
2017,07,06,06,54,12.30
2017,07,06,06,55,12.30
2017,07,06,06,56,12.30
2017,07,06,06,57,12.40
2017,07,06,06,58,12.40
2017,07,06,06,59,12.40
2017,07,06,07,00,12.40
2017,07,06,07,01,12.50
2017,07,06,07,02,12.50
2017,07,06,07,03,12.60
2017,07,06,07,04,12.60
2017,07,06,07,05,12.60
2017,07,06,07,06,12.70
2017,07,06,07,07,12.70
2017,07,06,07,08,12.70
2017,07,06,07,09,12.80
2017,07,06,07,10,12.80
2017,07,06,07,11,12.90
2017,07,06,07,12,12.90
2017,07,06,07,13,12.90
2017,07,06,07,14,12.90
2017,07,06,07,15,12.90
2017,07,06,07,16,13.00
2017,07,06,07,17,13.00
2017,07,06,07,18,13.00
2017,07,06,07,19,13.10
2017,07,06,07,20,13.10
2017,07,06,07,21,13.10
2017,07,06,07,22,13.10
2017,07,06,07,23,13.10
2017,07,06,07,24,13.10
2017,07,06,07,25,13.20
2017,07,06,07,26,13.20
2017,07,06,07,27,13.30
2017,07,06,07,28,13.30
2017,07,06,07,29,13.30
2017,07,06,07,30,13.40
2017,07,06,07,31,13.50
2017,07,06,07,32,13.60
2017,07,06,07,33,13.70
2017,07,06,07,34,13.70
2017,07,06,07,35,13.80
2017,07,06,07,36,13.80
2017,07,06,07,37,13.90
2017,07,06,07,38,14.00
2017,07,06,07,39,14.00
2017,07,06,07,40,14.10
2017,07,06,07,41,14.10
2017,07,06,07,42,14.20
2017,07,06,07,43,14.30
2017,07,06,07,44,14.30
2017,07,06,07,45,14.40
2017,07,06,07,46,14.50
2017,07,06,07,47,14.60
2017,07,06,07,48,14.70
2017,07,06,07,49,14.70
2017,07,06,07,50,14.80
2017,07,06,07,51,14.80
2017,07,06,07,52,14.90
2017,07,06,07,53,14.90
2017,07,06,07,54,14.90
2017,07,06,07,55,15.00
2017,07,06,07,56,15.00
2017,07,06,07,57,15.00
2017,07,06,07,58,15.00
2017,07,06,07,59,15.00
2017,07,06,08,00,15.10
2017,07,06,08,01,15.10
2017,07,06,08,02,15.10
2017,07,06,08,03,15.10
2017,07,06,08,04,15.10
2017,07,06,08,05,15.10
2017,07,06,08,06,15.10
2017,07,06,08,07,15.10
2017,07,06,08,08,15.10
2017,07,06,08,09,15.10
2017,07,06,08,10,15.10
2017,07,06,08,11,15.10
2017,07,06,08,12,15.20
2017,07,06,08,13,15.20
2017,07,06,08,14,15.20
2017,07,06,08,15,15.20
2017,07,06,08,16,15.20
2017,07,06,08,17,15.30
2017,07,06,08,18,15.30
2017,07,06,08,19,15.30
2017,07,06,08,20,15.30
2017,07,06,08,21,15.40
2017,07,06,08,22,15.40
2017,07,06,08,23,15.50
2017,07,06,08,24,15.50
2017,07,06,08,25,15.50
2017,07,06,08,26,15.60
2017,07,06,08,27,15.60
2017,07,06,08,28,15.70
2017,07,06,08,29,15.70
2017,07,06,08,30,15.70
2017,07,06,08,31,15.80
2017,07,06,08,32,15.80
2017,07,06,08,33,15.90
2017,07,06,08,34,15.90
2017,07,06,08,35,15.90
2017,07,06,08,36,16.00
2017,07,06,08,37,16.10
2017,07,06,08,38,16.20
2017,07,06,08,39,16.30
2017,07,06,08,40,16.40
2017,07,06,08,41,16.50
2017,07,06,08,42,16.70
2017,07,06,08,43,16.90
2017,07,06,08,44,17.00
2017,07,06,08,45,17.20
2017,07,06,08,46,17.30
2017,07,06,08,47,17.40
2017,07,06,08,48,17.50
2017,07,06,08,49,17.60
2017,07,06,08,50,17.70
2017,07,06,08,51,17.80
2017,07,06,08,52,17.90
2017,07,06,08,53,17.90
2017,07,06,08,54,18.00
2017,07,06,08,55,18.10
2017,07,06,08,56,18.20
2017,07,06,08,57,18.40
2017,07,06,08,58,18.50
2017,07,06,08,59,18.60
2017,07,06,09,00,18.70
2017,07,06,09,01,18.70
2017,07,06,09,02,18.70
2017,07,06,09,03,18.70
2017,07,06,09,04,18.80
2017,07,06,09,05,18.90
2017,07,06,09,06,18.90
2017,07,06,09,07,18.90
2017,07,06,09,08,19.00
2017,07,06,09,09,19.10
2017,07,06,09,10,19.20
2017,07,06,09,11,19.30
2017,07,06,09,12,19.40
2017,07,06,09,13,19.50
2017,07,06,09,14,19.70
2017,07,06,09,15,19.80
2017,07,06,09,16,19.80
2017,07,06,09,17,19.90
2017,07,06,09,18,20.00
2017,07,06,09,19,20.10
2017,07,06,09,20,20.20
2017,07,06,09,21,20.30
2017,07,06,09,22,20.40
2017,07,06,09,23,20.50
2017,07,06,09,24,20.70
2017,07,06,09,25,20.80
2017,07,06,09,26,20.90
2017,07,06,09,27,21.00
2017,07,06,09,28,21.00
2017,07,06,09,29,21.10
2017,07,06,09,30,21.20
2017,07,06,09,31,21.20
2017,07,06,09,32,21.30
2017,07,06,09,33,21.30
2017,07,06,09,34,21.30
2017,07,06,09,35,21.30
2017,07,06,09,36,21.30
2017,07,06,09,37,21.30
2017,07,06,09,38,21.30
2017,07,06,09,39,21.30
2017,07,06,09,40,21.20
2017,07,06,09,41,21.20
2017,07,06,09,42,21.20
2017,07,06,09,43,21.20
2017,07,06,09,44,21.10
2017,07,06,09,45,21.10
2017,07,06,09,46,21.00
2017,07,06,09,47,21.00
2017,07,06,09,48,21.10
2017,07,06,09,49,21.00
2017,07,06,09,50,21.00
2017,07,06,09,51,21.10
2017,07,06,09,52,21.10
2017,07,06,09,53,21.10
2017,07,06,09,54,21.20
2017,07,06,09,55,21.20
2017,07,06,09,56,21.30
2017,07,06,09,57,21.40
2017,07,06,09,58,21.50
2017,07,06,09,59,21.60
2017,07,06,10,00,21.70
2017,07,06,10,01,21.70
2017,07,06,10,02,21.70
2017,07,06,10,03,21.70
2017,07,06,10,04,21.70
2017,07,06,10,05,21.70
2017,07,06,10,06,21.70
2017,07,06,10,07,21.70
2017,07,06,10,08,21.70
2017,07,06,10,09,21.80
2017,07,06,10,10,21.80
2017,07,06,10,11,21.80
2017,07,06,10,12,21.90
2017,07,06,10,13,21.90
2017,07,06,10,14,22.00
2017,07,06,10,15,22.00
2017,07,06,10,16,22.10
2017,07,06,10,17,22.10
2017,07,06,10,18,22.10
2017,07,06,10,19,22.10
2017,07,06,10,20,22.10
2017,07,06,10,21,22.10
2017,07,06,10,22,22.10
2017,07,06,10,23,22.20
2017,07,06,10,24,22.20
2017,07,06,10,25,22.30
2017,07,06,10,26,22.30
2017,07,06,10,27,22.30
2017,07,06,10,28,22.30
2017,07,06,10,29,22.30
2017,07,06,10,30,22.30
2017,07,06,10,31,22.20
2017,07,06,10,32,22.20
2017,07,06,10,33,22.20
2017,07,06,10,34,22.10
2017,07,06,10,35,22.10
2017,07,06,10,36,22.10
2017,07,06,10,37,22.10
2017,07,06,10,38,22.10
2017,07,06,10,39,22.10
2017,07,06,10,40,22.20
2017,07,06,10,41,22.20
2017,07,06,10,42,22.30
2017,07,06,10,43,22.30
2017,07,06,10,44,22.40
2017,07,06,10,45,22.40
2017,07,06,10,46,22.50
2017,07,06,10,47,22.50
2017,07,06,10,48,22.50
2017,07,06,10,49,22.40
2017,07,06,10,50,22.40
2017,07,06,10,51,22.40
2017,07,06,10,52,22.40
2017,07,06,10,53,22.50
2017,07,06,10,54,22.50
2017,07,06,10,55,22.60
2017,07,06,10,56,22.60
2017,07,06,10,57,22.70
2017,07,06,10,58,22.70
2017,07,06,10,59,22.70
2017,07,06,11,00,22.60
2017,07,06,11,01,22.60
2017,07,06,11,02,22.50
2017,07,06,11,03,22.40
2017,07,06,11,04,22.30
2017,07,06,11,05,22.20
2017,07,06,11,06,22.20
2017,07,06,11,07,22.10
2017,07,06,11,08,22.10
2017,07,06,11,09,22.00
2017,07,06,11,10,22.00
2017,07,06,11,11,22.00
2017,07,06,11,12,22.10
2017,07,06,11,13,22.10
2017,07,06,11,14,22.20
2017,07,06,11,15,22.30
2017,07,06,11,16,22.30
2017,07,06,11,17,22.40
2017,07,06,11,18,22.50
2017,07,06,11,19,22.50
2017,07,06,11,20,22.50
2017,07,06,11,21,22.40
2017,07,06,11,22,22.30
2017,07,06,11,23,22.30
2017,07,06,11,24,22.20
2017,07,06,11,25,22.10
2017,07,06,11,26,22.10
2017,07,06,11,27,22.00
2017,07,06,11,28,22.00
2017,07,06,11,29,22.00
2017,07,06,11,30,22.10
2017,07,06,11,31,22.10
2017,07,06,11,32,22.10
2017,07,06,11,33,22.20
2017,07,06,11,34,22.30
2017,07,06,11,35,22.40
2017,07,06,11,36,22.50
2017,07,06,11,37,22.50
2017,07,06,11,38,22.50
2017,07,06,11,39,22.60
2017,07,06,11,40,22.70
2017,07,06,11,41,22.60
2017,07,06,11,42,22.60
2017,07,06,11,43,22.60
2017,07,06,11,44,22.70
2017,07,06,11,45,22.80
2017,07,06,11,46,22.80
2017,07,06,11,47,22.90
2017,07,06,11,48,22.90
2017,07,06,11,49,23.00
2017,07,06,11,50,23.00
2017,07,06,11,51,23.10
2017,07,06,11,52,23.10
2017,07,06,11,53,23.10
2017,07,06,11,54,23.10
2017,07,06,11,55,23.10
2017,07,06,11,56,23.10
2017,07,06,11,57,23.20
2017,07,06,11,58,23.40
2017,07,06,11,59,23.50
2017,07,06,12,00,23.70
2017,07,06,12,01,23.80
2017,07,06,12,02,23.90
2017,07,06,12,03,24.00
2017,07,06,12,04,24.00
2017,07,06,12,05,24.10
2017,07,06,12,06,24.10
2017,07,06,12,07,24.10
2017,07,06,12,08,24.10
2017,07,06,12,09,24.10
2017,07,06,12,10,24.00
2017,07,06,12,11,23.90
2017,07,06,12,12,23.70
2017,07,06,12,13,23.60
2017,07,06,12,14,23.60
2017,07,06,12,15,23.60
2017,07,06,12,16,23.70
2017,07,06,12,17,23.70
2017,07,06,12,18,23.70
2017,07,06,12,19,23.70
2017,07,06,12,20,23.70
2017,07,06,12,21,23.80
2017,07,06,12,22,23.80
2017,07,06,12,23,23.80
2017,07,06,12,24,23.80
2017,07,06,12,25,23.70
2017,07,06,12,26,23.60
2017,07,06,12,27,23.50
2017,07,06,12,28,23.50
2017,07,06,12,29,23.40
2017,07,06,12,30,23.30
2017,07,06,12,31,23.40
2017,07,06,12,32,23.40
2017,07,06,12,33,23.50
2017,07,06,12,34,23.60
2017,07,06,12,35,23.70
2017,07,06,12,36,23.70
2017,07,06,12,37,23.80
2017,07,06,12,38,23.80
2017,07,06,12,39,23.60
2017,07,06,12,40,23.50
2017,07,06,12,41,23.40
2017,07,06,12,42,23.30
2017,07,06,12,43,23.30
2017,07,06,12,44,23.30
2017,07,06,12,45,23.40
2017,07,06,12,46,23.50
2017,07,06,12,47,23.60
2017,07,06,12,48,23.70
2017,07,06,12,49,23.80
2017,07,06,12,50,23.90
2017,07,06,12,51,24.00
2017,07,06,12,52,24.10
2017,07,06,12,53,24.20
2017,07,06,12,54,24.30
2017,07,06,12,55,24.40
2017,07,06,12,56,24.40
2017,07,06,12,57,24.40
2017,07,06,12,58,24.50
2017,07,06,12,59,24.40
2017,07,06,13,00,24.40
2017,07,06,13,01,24.40
2017,07,06,13,02,24.40
2017,07,06,13,03,24.40
2017,07,06,13,04,24.40
2017,07,06,13,05,24.40
2017,07,06,13,06,24.40
2017,07,06,13,07,24.40
2017,07,06,13,08,24.50
2017,07,06,13,09,24.60
2017,07,06,13,10,24.60
2017,07,06,13,11,24.70
2017,07,06,13,12,24.80
2017,07,06,13,13,24.90
2017,07,06,13,14,24.90
2017,07,06,13,15,24.90
2017,07,06,13,16,24.90
2017,07,06,13,17,24.90
2017,07,06,13,18,25.00
2017,07,06,13,19,25.10
2017,07,06,13,20,25.10
2017,07,06,13,21,25.10
2017,07,06,13,22,25.00
2017,07,06,13,23,25.00
2017,07,06,13,24,25.00
2017,07,06,13,25,24.90
2017,07,06,13,26,24.90
2017,07,06,13,27,25.00
2017,07,06,13,28,25.10
2017,07,06,13,29,25.20
2017,07,06,13,30,25.30
2017,07,06,13,31,25.30
2017,07,06,13,32,25.30
2017,07,06,13,33,25.40
2017,07,06,13,34,25.50
2017,07,06,13,35,25.60
2017,07,06,13,36,25.70
2017,07,06,13,37,25.70
2017,07,06,13,38,25.70
2017,07,06,13,39,25.70
2017,07,06,13,40,25.60
2017,07,06,13,41,25.50
2017,07,06,13,42,25.60
2017,07,06,13,43,25.60
2017,07,06,13,44,25.60
2017,07,06,13,45,25.70
2017,07,06,13,46,25.70
2017,07,06,13,47,25.80
2017,07,06,13,48,25.80
2017,07,06,13,49,25.80
2017,07,06,13,50,25.80
2017,07,06,13,51,25.90
2017,07,06,13,52,26.00
2017,07,06,13,53,26.00
2017,07,06,13,54,26.00
2017,07,06,13,55,26.10
2017,07,06,13,56,26.10
2017,07,06,13,57,26.20
2017,07,06,13,58,26.20
2017,07,06,13,59,26.30
2017,07,06,14,00,26.40
2017,07,06,14,01,26.50
2017,07,06,14,02,26.50
2017,07,06,14,03,26.60
2017,07,06,14,04,26.50
2017,07,06,14,05,26.50
2017,07,06,14,06,26.50
2017,07,06,14,07,26.50
2017,07,06,14,08,26.60
2017,07,06,14,09,26.60
2017,07,06,14,10,26.60
2017,07,06,14,11,26.60
2017,07,06,14,12,26.60
2017,07,06,14,13,26.60
2017,07,06,14,14,26.60
2017,07,06,14,15,26.70
2017,07,06,14,16,26.80
2017,07,06,14,17,26.80
2017,07,06,14,18,27.00
2017,07,06,14,19,27.10
2017,07,06,14,20,27.10
2017,07,06,14,21,27.20
2017,07,06,14,22,27.20
2017,07,06,14,23,27.10
2017,07,06,14,24,27.10
2017,07,06,14,25,27.00
2017,07,06,14,26,27.00
2017,07,06,14,27,27.00
2017,07,06,14,28,26.90
2017,07,06,14,29,26.90
2017,07,06,14,30,26.90
2017,07,06,14,31,26.90
2017,07,06,14,32,26.90
2017,07,06,14,33,27.00
2017,07,06,14,34,27.00
2017,07,06,14,35,27.10
2017,07,06,14,36,27.10
2017,07,06,14,37,27.20
2017,07,06,14,38,27.20
2017,07,06,14,39,27.20
2017,07,06,14,40,27.20
2017,07,06,14,41,27.10
2017,07,06,14,42,27.00
2017,07,06,14,43,27.00
2017,07,06,14,44,27.10
2017,07,06,14,45,27.10
2017,07,06,14,46,27.20
2017,07,06,14,47,27.20
2017,07,06,14,48,27.20
2017,07,06,14,49,27.30
2017,07,06,14,50,27.40
2017,07,06,14,51,27.30
2017,07,06,14,52,27.30
2017,07,06,14,53,27.30
2017,07,06,14,54,27.20
2017,07,06,14,55,27.10
2017,07,06,14,56,27.00
2017,07,06,14,57,27.00
2017,07,06,14,58,27.10
2017,07,06,14,59,27.10
2017,07,06,15,00,27.10
2017,07,06,15,01,27.00
2017,07,06,15,02,26.90
2017,07,06,15,03,26.80
2017,07,06,15,04,26.80
2017,07,06,15,05,26.70
2017,07,06,15,06,26.70
2017,07,06,15,07,26.70
2017,07,06,15,08,26.70
2017,07,06,15,09,26.70
2017,07,06,15,10,26.60
2017,07,06,15,11,26.60
2017,07,06,15,12,26.60
2017,07,06,15,13,26.50
2017,07,06,15,14,26.50
2017,07,06,15,15,26.50
2017,07,06,15,16,26.50
2017,07,06,15,17,26.60
2017,07,06,15,18,26.60
2017,07,06,15,19,26.60
2017,07,06,15,20,26.70
2017,07,06,15,21,26.80
2017,07,06,15,22,26.90
2017,07,06,15,23,26.90
2017,07,06,15,24,27.00
2017,07,06,15,25,27.10
2017,07,06,15,26,27.10
2017,07,06,15,27,27.10
2017,07,06,15,28,27.10
2017,07,06,15,29,27.20
2017,07,06,15,30,27.20
2017,07,06,15,31,27.30
2017,07,06,15,32,27.30
2017,07,06,15,33,27.40
2017,07,06,15,34,27.50
2017,07,06,15,35,27.60
2017,07,06,15,36,27.60
2017,07,06,15,37,27.60
2017,07,06,15,38,27.50
2017,07,06,15,39,27.50
2017,07,06,15,40,27.40
2017,07,06,15,41,27.30
2017,07,06,15,42,27.30
2017,07,06,15,43,27.30
2017,07,06,15,44,27.30
2017,07,06,15,45,27.40
2017,07,06,15,46,27.50
2017,07,06,15,47,27.60
2017,07,06,15,48,27.70
2017,07,06,15,49,27.80
2017,07,06,15,50,27.90
2017,07,06,15,51,27.90
2017,07,06,15,52,27.90
2017,07,06,15,53,27.90
2017,07,06,15,54,27.80
2017,07,06,15,55,27.70
2017,07,06,15,56,27.60
2017,07,06,15,57,27.60
2017,07,06,15,58,27.60
2017,07,06,15,59,27.60
2017,07,06,16,00,27.60
2017,07,06,16,01,27.60
2017,07,06,16,02,27.60
2017,07,06,16,03,27.60
2017,07,06,16,04,27.50
2017,07,06,16,05,27.50
2017,07,06,16,06,27.40
2017,07,06,16,07,27.40
2017,07,06,16,08,27.40
2017,07,06,16,09,27.40
2017,07,06,16,10,27.40
2017,07,06,16,11,27.50
2017,07,06,16,12,27.60
2017,07,06,16,13,27.60
2017,07,06,16,14,27.70
2017,07,06,16,15,27.70
2017,07,06,16,16,27.80
2017,07,06,16,17,27.80
2017,07,06,16,18,27.90
2017,07,06,16,19,28.00
2017,07,06,16,20,28.00
2017,07,06,16,21,28.10
2017,07,06,16,22,28.10
2017,07,06,16,23,28.10
2017,07,06,16,24,28.20
2017,07,06,16,25,28.10
2017,07,06,16,26,28.20
2017,07,06,16,27,28.20
2017,07,06,16,28,28.20
2017,07,06,16,29,28.20
2017,07,06,16,30,28.20
2017,07,06,16,31,28.20
2017,07,06,16,32,28.20
2017,07,06,16,33,28.30
2017,07,06,16,34,28.30
2017,07,06,16,35,28.30
2017,07,06,16,36,28.40
2017,07,06,16,37,28.40
2017,07,06,16,38,28.40
2017,07,06,16,39,28.40
2017,07,06,16,40,28.40
2017,07,06,16,41,28.40
2017,07,06,16,42,28.40
2017,07,06,16,43,28.40
2017,07,06,16,44,28.30
2017,07,06,16,45,28.30
2017,07,06,16,46,28.40
2017,07,06,16,47,28.40
2017,07,06,16,48,28.50
2017,07,06,16,49,28.50
2017,07,06,16,50,28.50
2017,07,06,16,51,28.40
2017,07,06,16,52,28.40
2017,07,06,16,53,28.40
2017,07,06,16,54,28.30
2017,07,06,16,55,28.30
2017,07,06,16,56,28.30
2017,07,06,16,57,28.30
2017,07,06,16,58,28.30
2017,07,06,16,59,28.20
2017,07,06,17,00,28.10
2017,07,06,17,01,28.00
2017,07,06,17,02,27.90
2017,07,06,17,03,27.90
2017,07,06,17,04,27.90
2017,07,06,17,05,28.00
2017,07,06,17,06,27.90
2017,07,06,17,07,27.90
2017,07,06,17,08,28.00
2017,07,06,17,09,28.00
2017,07,06,17,10,28.00
2017,07,06,17,11,28.10
2017,07,06,17,12,28.10
2017,07,06,17,13,28.20
2017,07,06,17,14,28.20
2017,07,06,17,15,28.30
2017,07,06,17,16,28.30
2017,07,06,17,17,28.40
2017,07,06,17,18,28.40
2017,07,06,17,19,28.40